AEST,Max TemperatureF,Mean TemperatureF,Min TemperatureF,Max Dew PointF,MeanDew PointF,Min DewpointF,Max Humidity, Mean Humidity, Min Humidity, Max Sea Level PressureIn, Mean Sea Level PressureIn, Min Sea Level PressureIn, Max VisibilityMiles, Mean VisibilityMiles, Min VisibilityMiles, Max Wind SpeedMPH, Mean Wind SpeedMPH, Max Gust SpeedMPH,PrecipitationIn, CloudCover, Events, WindDirDegrees
2013-4-1,84,76,68,70,69,66,100,75,51,29.95,29.90,29.83,19,7,6,14,4,,0.00,2,,140
2013-4-2,86,78,70,70,69,66,100,73,47,29.94,29.89,29.83,19,6,6,14,5,,0.02,1,,139
2013-4-3,87,80,73,72,70,66,94,72,42,29.96,29.90,29.83,19,7,4,20,10,,0.02,3,Rain,154
2013-4-4,87,79,71,72,68,62,100,74,33,30.01,29.95,29.89,19,6,2,22,13,32,0.39,5,Rain,168
2013-4-5,80,76,71,73,69,64,94,77,62,30.02,29.96,29.92,19,7,3,17,12,25,0.12,5,Rain,169
2013-4-6,83,77,71,73,69,67,94,79,56,29.98,29.91,29.86,19,6,2,15,11,,0.16,4,Rain,175
2013-4-7,86,78,71,72,69,66,94,76,48,29.95,29.88,29.83,19,7,3,23,12,,0.01,5,Rain,162
2013-4-8,82,78,73,75,71,68,94,82,65,29.96,29.90,29.86,19,6,2,21,17,33,0.12,6,Rain,164
2013-4-9,79,76,73,74,72,71,100,90,78,29.94,29.87,29.80,7,5,2,18,14,,0.79,7,Rain,167
2013-4-10,82,77,72,74,72,66,95,88,70,29.87,29.78,29.71,16,6,3,26,10,38,0.67,7,Fog-Rain,164
2013-4-11,78,74,70,72,68,66,94,81,68,29.79,29.72,29.65,16,6,3,29,22,40,0.12,7,Rain,161
2013-4-12,82,77,72,73,71,68,100,84,65,29.80,29.73,29.68,19,6,1,29,20,37,0.35,6,Rain,160
2013-4-13,86,78,71,72,70,68,94,78,55,29.86,29.78,29.71,19,7,2,18,13,29,0.00,4,Rain,167
2013-4-14,86,78,70,72,70,68,94,74,52,29.88,29.82,29.77,19,7,6,17,7,,0.00,2,,154
2013-4-15,86,78,71,73,70,68,89,74,54,29.86,29.80,29.74,19,7,6,15,7,,0.00,4,,147
2013-4-16,84,77,70,73,70,64,94,79,56,29.92,29.85,29.80,19,7,5,18,7,24,0.01,5,Rain,176
2013-4-17,86,77,68,72,69,66,100,76,48,29.94,29.88,29.80,19,7,6,15,6,,0.00,1,,145
2013-4-18,86,78,69,72,69,64,100,74,44,29.97,29.91,29.83,19,7,6,15,6,,0.00,1,,148
2013-4-19,86,77,68,72,69,66,94,76,52,29.95,29.90,29.83,19,7,6,15,7,,0.00,1,,130
2013-4-20,82,74,67,73,70,66,100,80,51,29.91,29.84,29.77,6,6,6,10,4,,0.00,2,Fog,343
2013-4-21,84,76,68,73,71,68,94,82,59,29.90,29.85,29.80,19,7,6,10,5,,0.00,3,,342
2013-4-22,84,78,72,75,73,71,95,80,61,29.96,29.89,29.83,19,7,6,10,5,,0.00,3,,79
2013-4-23,86,78,70,72,71,67,95,77,46,30.00,29.94,29.89,19,7,6,13,6,,0.00,2,,145
2013-4-24,86,78,69,72,69,65,95,75,44,30.03,29.95,29.89,19,7,6,14,5,,0.00,2,,146
2013-4-25,86,78,71,70,68,63,94,70,36,30.04,29.97,29.92,19,7,6,16,8,,0.00,2,,151
2013-4-26,87,78,70,71,68,64,94,70,37,30.04,29.99,29.95,19,7,2,24,13,29,0.16,5,Rain,160
2013-4-27,84,78,72,72,67,64,89,71,53,30.03,29.96,29.89,19,6,4,22,13,30,0.03,4,Rain,160
2013-4-28,84,78,73,70,66,63,88,68,43,30.02,29.95,29.89,19,7,4,20,12,26,0.16,4,Rain,162
2013-4-29,82,76,71,72,69,66,94,76,55,30.02,29.96,29.92,19,7,4,21,13,31,0.20,6,Rain,173
2013-4-30,82,78,73,73,71,70,96,81,59,29.99,29.93,29.89,16,6,2,25,17,37,0.03,6,Rain,158